Content
SEND FEEDBACK

Daily
Averages
Monthly
Summary
United States of America

YSLETA, TEXAS


Home > North America > United States > Texas
Elevation: 3725 feet     Latitude: 31 42N     Longitude: 106 19W

WEATHER
 
SELECT A DAY
Number of Records: 170,296;   Date Range: 1/1/95 - 4/23/14
 
SHARE

PRINT THIS DATA

[ ← Previous Day ]
WEATHER ALMANAC - MARCH 31, 2013
[ Next Day → ]
[ °C ]   °F
Weather ElementAverageHighLow
Temperature70.5 °F80.1 °F (4:51 pm)57.9 °F (5:51 am)
Dewpoint20.5 °F25 °F (9:51 am)18 °F (4:51 am)
Humidity15.5 %23 % (6:51 am)11 % (1:51 pm)
Barometer29.83 in29.89 in (7:51 am)29.79 in (4:51 pm)
Wind Speed3.3 mph9.2 mph (1:51 pm)
Wind Gust18.4 mph (1:51 pm)
Weather ElementAverage
Visibility10 mi
Wind DirectionESE (95.7 °)

Weather ElementTotal
Precipitation---
Cooling Degree Days4 (Base 65)
Growing Degree Days19 (Base 50)
Averaged from 23 records on March 31, 2013
WEATHER CONDITIONS BREAKOUT
WIND DIRECTION BREAKOUT
WEATHER BY HOUR - MARCH 31, 2013
[ °C ]   °F
Local TimeTemperatureDewpointHumidityBarometerVisibilityWind DirectionWind SpeedGust SpeedPrecipitationEventsConditions
1:51 AM66.9 °F19.0 °F16 %29.82 in10.0 miNorth (360°)3.5 mphMostly Cloudy
2:51 AM66.0 °F19.0 °F17 %29.81 in10.0 miNNW (330°)3.5 mphMostly Cloudy
3:51 AM63.0 °F19.0 °F18 %29.81 in10.0 miCalmMostly Cloudy
4:51 AM59.0 °F18.0 °F20 %29.82 in10.0 miNE (50°)6.9 mphOvercast
5:51 AM57.9 °F18.0 °F21 %29.86 in10.0 miCalmMostly Cloudy
6:51 AM57.9 °F19.9 °F23 %29.87 in10.0 miCalmScattered Clouds
7:51 AM59.0 °F19.0 °F21 %29.89 in10.0 miCalmScattered Clouds
8:51 AM66.9 °F21.0 °F17 %29.88 in10.0 miCalmScattered Clouds
9:51 AM71.1 °F25.0 °F18 %29.88 in10.0 miSouth (170°)3.5 mphScattered Clouds
10:51 AM73.9 °F24.1 °F16 %29.88 in10.0 miVariable4.6 mphPartly Cloudy
11:51 AM77.0 °F23.0 °F13 %29.88 in10.0 miVariable6.9 mphPartly Cloudy
12:51 PM77.0 °F21.0 °F12 %29.88 in10.0 miCalmPartly Cloudy
1:51 PM79.0 °F19.9 °F11 %29.85 in10.0 miWSW (250°)9.2 mph18.4 mphPartly Cloudy
2:51 PM78.1 °F21.0 °F12 %29.82 in10.0 miCalmPartly Cloudy
3:51 PM79.0 °F21.0 °F12 %29.80 in10.0 miCalmPartly Cloudy
4:51 PM80.1 °F19.9 °F11 %29.79 in10.0 miWest (270°)6.9 mphPartly Cloudy
5:51 PM80.1 °F19.9 °F11 %29.79 in10.0 miVariable4.6 mphPartly Cloudy
6:51 PM78.1 °F19.9 °F11 %29.80 in10.0 miCalmPartly Cloudy
7:51 PM73.9 °F19.9 °F13 %29.81 in10.0 miSW (230°)6.9 mphPartly Cloudy
8:51 PM73.0 °F21.0 °F14 %29.81 in10.0 miSouth (180°)6.9 mphPartly Cloudy
9:51 PM69.1 °F21.0 °F16 %29.82 in10.0 miSouth (170°)6.9 mphPartly Cloudy
10:51 PM68.0 °F21.9 °F17 %29.82 in10.0 miCalmPartly Cloudy
11:51 PM66.9 °F19.9 °F17 %29.81 in10.0 miSouth (190°)5.8 mphScattered Clouds
Hourly data recorded from KELP, located 8.27 miles away from Ysleta, Texas







STORIES FROM OUR PARTNERS